TimeCDT,TemperatureF,Dew PointF,Humidity,Sea Level PressureIn,VisibilityMPH,Wind Direction,Wind SpeedMPH,Gust SpeedMPH,PrecipitationIn,Events,Conditions,WindDirDegrees,DateUTC
12:15 AM,73.9,66.4,77,30.01,10.0,Calm,Calm,-,N/A,,Scattered Clouds,0,2013-09-28 05:15:00
12:35 AM,74.3,66.4,76,30.01,10.0,Calm,Calm,-,N/A,,Scattered Clouds,0,2013-09-28 05:35:00
12:55 AM,74.5,66.2,75,30.01,10.0,Calm,Calm,-,N/A,,Scattered Clouds,0,2013-09-28 05:55:00
1:15 AM,74.8,66.2,74,30.01,10.0,Calm,Calm,-,N/A,,Scattered Clouds,0,2013-09-28 06:15:00
1:35 AM,74.5,66.0,75,30.01,10.0,Calm,Calm,-,N/A,,Scattered Clouds,0,2013-09-28 06:35:00
1:55 AM,74.3,65.8,75,30.00,10.0,Calm,Calm,-,N/A,,Scattered Clouds,0,2013-09-28 06:55:00
2:15 AM,74.3,65.7,74,30.00,10.0,Calm,Calm,-,N/A,,Mostly Cloudy,0,2013-09-28 07:15:00
2:35 AM,73.9,65.3,74,30.00,10.0,Calm,Calm,-,N/A,,Scattered Clouds,0,2013-09-28 07:35:00
2:55 AM,73.8,65.5,75,30.00,10.0,Calm,Calm,-,N/A,,Clear,0,2013-09-28 07:55:00
3:15 AM,73.4,65.3,76,30.01,10.0,Calm,Calm,-,N/A,,Scattered Clouds,0,2013-09-28 08:15:00
3:35 AM,72.5,65.3,78,30.01,10.0,Calm,Calm,-,N/A,,Clear,0,2013-09-28 08:35:00
3:55 AM,72.1,65.3,79,30.00,10.0,Calm,Calm,-,N/A,,Mostly Cloudy,0,2013-09-28 08:55:00
4:15 AM,72.1,65.3,79,30.01,10.0,Calm,Calm,-,N/A,,Scattered Clouds,0,2013-09-28 09:15:00
4:35 AM,71.6,65.5,81,30.01,10.0,Calm,Calm,-,N/A,,Clear,0,2013-09-28 09:35:00
4:55 AM,71.2,65.5,82,30.01,10.0,Calm,Calm,-,N/A,,Scattered Clouds,0,2013-09-28 09:55:00
5:15 AM,70.9,65.7,83,30.02,10.0,Calm,Calm,-,N/A,,Scattered Clouds,0,2013-09-28 10:15:00
5:35 AM,70.7,65.7,84,30.02,10.0,Calm,Calm,-,N/A,,Clear,0,2013-09-28 10:35:00
5:55 AM,70.3,65.8,86,30.03,10.0,Calm,Calm,-,N/A,,Clear,0,2013-09-28 10:55:00
6:15 AM,70.2,65.8,86,30.04,10.0,Calm,Calm,-,N/A,,Scattered Clouds,0,2013-09-28 11:15:00
6:35 AM,70.7,66.2,86,30.05,10.0,Calm,Calm,-,N/A,,Scattered Clouds,0,2013-09-28 11:35:00
6:55 AM,70.9,66.2,85,30.06,10.0,Calm,Calm,-,N/A,,Mostly Cloudy,0,2013-09-28 11:55:00
7:15 AM,70.9,66.2,85,30.06,10.0,Calm,Calm,-,N/A,,Mostly Cloudy,0,2013-09-28 12:15:00
7:35 AM,71.1,66.6,86,30.07,10.0,Calm,Calm,-,N/A,,Mostly Cloudy,0,2013-09-28 12:35:00
7:55 AM,71.1,66.6,86,30.07,10.0,Calm,Calm,-,N/A,,Scattered Clouds,0,2013-09-28 12:55:00
8:15 AM,71.6,67.1,86,30.07,10.0,Calm,Calm,-,N/A,,Clear,0,2013-09-28 13:15:00
8:35 AM,73.8,67.5,81,30.08,10.0,Calm,Calm,-,N/A,,Clear,0,2013-09-28 13:35:00
8:55 AM,75.7,68.4,78,30.07,10.0,Calm,Calm,-,N/A,,Clear,0,2013-09-28 13:55:00
9:15 AM,78.1,68.5,72,30.08,10.0,Calm,Calm,-,N/A,,Clear,0,2013-09-28 14:15:00
9:35 AM,79.9,68.9,69,30.08,10.0,Calm,Calm,-,N/A,,Clear,0,2013-09-28 14:35:00
9:55 AM,81.5,69.1,66,30.09,10.0,Calm,Calm,-,N/A,,Clear,0,2013-09-28 14:55:00
10:15 AM,82.0,68.2,63,30.09,10.0,South,8.1,-,N/A,,Clear,170,2013-09-28 15:15:00
10:35 AM,83.7,68.0,59,30.09,10.0,South,5.8,-,N/A,,Clear,180,2013-09-28 15:35:00
10:55 AM,84.2,67.8,58,30.09,10.0,South,8.1,-,N/A,,Clear,170,2013-09-28 15:55:00
11:15 AM,84.9,66.6,54,30.09,10.0,Calm,Calm,-,N/A,,Clear,0,2013-09-28 16:15:00
11:35 AM,86.0,66.6,52,30.09,10.0,South,4.6,-,N/A,,Scattered Clouds,190,2013-09-28 16:35:00
11:55 AM,87.3,66.6,50,30.08,10.0,South,6.9,-,N/A,,Clear,170,2013-09-28 16:55:00
12:15 PM,87.4,65.8,49,30.08,10.0,Calm,Calm,-,N/A,,Clear,0,2013-09-28 17:15:00
12:35 PM,88.9,65.5,46,30.07,10.0,Calm,Calm,-,N/A,,Scattered Clouds,0,2013-09-28 17:35:00
12:55 PM,87.4,64.2,46,30.07,10.0,Calm,Calm,-,N/A,,Mostly Cloudy,0,2013-09-28 17:55:00
1:15 PM,89.8,63.5,41,30.06,10.0,Calm,Calm,-,N/A,,Scattered Clouds,0,2013-09-28 18:15:00
1:35 PM,88.7,62.2,41,30.04,10.0,Calm,Calm,-,N/A,,Scattered Clouds,0,2013-09-28 18:35:00
1:55 PM,90.5,62.1,39,30.04,10.0,Calm,Calm,-,N/A,,Clear,0,2013-09-28 18:55:00
2:15 PM,87.3,63.0,44,30.03,10.0,Calm,Calm,-,N/A,,Clear,0,2013-09-28 19:15:00
2:35 PM,89.4,62.2,40,30.02,10.0,Calm,Calm,-,N/A,,Scattered Clouds,0,2013-09-28 19:35:00
2:55 PM,90.3,61.2,38,30.01,10.0,Calm,Calm,-,N/A,,Scattered Clouds,0,2013-09-28 19:55:00
3:15 PM,90.3,60.1,36,30.00,10.0,Calm,Calm,-,N/A,,Clear,0,2013-09-28 20:15:00
3:35 PM,90.7,61.0,37,30.00,10.0,Calm,Calm,-,N/A,,Clear,0,2013-09-28 20:35:00
3:55 PM,90.1,60.8,37,29.99,10.0,Calm,Calm,-,N/A,,Clear,0,2013-09-28 20:55:00
4:15 PM,86.9,63.1,45,29.99,10.0,Calm,Calm,-,N/A,,Clear,0,2013-09-28 21:15:00
4:35 PM,90.7,61.5,38,29.98,10.0,Calm,Calm,-,N/A,,Clear,0,2013-09-28 21:35:00
4:55 PM,90.5,61.7,38,29.97,10.0,Calm,Calm,-,N/A,,Clear,0,2013-09-28 21:55:00
5:15 PM,89.6,60.6,38,29.97,10.0,Calm,Calm,-,N/A,,Clear,0,2013-09-28 22:15:00
5:35 PM,89.1,61.2,39,29.97,10.0,Calm,Calm,-,N/A,,Clear,0,2013-09-28 22:35:00
5:55 PM,88.0,61.7,41,29.98,10.0,Calm,Calm,-,N/A,,Clear,0,2013-09-28 22:55:00
6:15 PM,86.9,62.2,43,29.99,10.0,Calm,Calm,-,N/A,,Clear,0,2013-09-28 23:15:00
6:35 PM,84.7,63.3,48,29.99,10.0,Calm,Calm,-,N/A,,Clear,0,2013-09-28 23:35:00
6:55 PM,83.3,64.2,52,30.00,10.0,Calm,Calm,-,N/A,,Mostly Cloudy,0,2013-09-28 23:55:00
7:15 PM,82.4,65.3,56,30.00,10.0,Calm,Calm,-,N/A,,Mostly Cloudy,0,2013-09-29 00:15:00
7:35 PM,80.6,65.7,60,30.00,10.0,Calm,Calm,-,N/A,,Scattered Clouds,0,2013-09-29 00:35:00
7:55 PM,79.9,65.8,62,30.00,10.0,Calm,Calm,-,N/A,,Clear,0,2013-09-29 00:55:00
8:15 PM,78.8,66.2,65,30.01,10.0,Calm,Calm,-,N/A,,Clear,0,2013-09-29 01:15:00
8:35 PM,78.4,65.7,65,30.02,10.0,Calm,Calm,-,N/A,,Clear,0,2013-09-29 01:35:00
8:55 PM,77.9,65.5,65,30.02,10.0,Calm,Calm,-,N/A,,Clear,0,2013-09-29 01:55:00
9:15 PM,77.4,65.3,66,30.02,10.0,Calm,Calm,-,N/A,,Clear,0,2013-09-29 02:15:00
9:35 PM,77.2,65.1,66,30.04,10.0,Calm,Calm,-,N/A,,Clear,0,2013-09-29 02:35:00
9:55 PM,77.0,64.8,66,30.04,10.0,Calm,Calm,-,N/A,,Clear,0,2013-09-29 02:55:00
10:15 PM,77.0,64.8,66,30.05,10.0,Calm,Calm,-,N/A,,Clear,0,2013-09-29 03:15:00
10:35 PM,74.8,66.4,75,30.05,10.0,Calm,Calm,-,N/A,,Scattered Clouds,0,2013-09-29 03:35:00
10:55 PM,75.2,67.3,76,30.06,10.0,Calm,Calm,-,N/A,,Mostly Cloudy,0,2013-09-29 03:55:00
11:15 PM,75.2,66.6,74,30.06,10.0,Calm,Calm,-,N/A,,Overcast,0,2013-09-29 04:15:00
11:35 PM,77.0,64.9,66,30.06,10.0,Calm,Calm,-,N/A,,Overcast,0,2013-09-29 04:35:00
11:55 PM,77.0,64.8,66,30.04,10.0,Calm,Calm,-,N/A,,Overcast,0,2013-09-29 04:55:00